SCP
0 0 -0 -0 0 0 0 0 0 0 0 -0 0 0 0 0 0 0 -0 -0 -0 -0 -0 -0 -0 0 0 -0 0 0 0 0 0 0 0 0 -0 -0 0 0 0 0 0
0 0 0 0 0 -0 -0 0 0 0 0 -0 0 -0 0 -0 0 -0 -0 -0 -0 -0 -0 -0 -0 0 -0 0 0 0 0 0 0 0 0 0 0 -0 -0 0 0 0 0
0 0 0 0 -0 -0 -0 -0 -0 -0 -0 -0 -0 -0 -0 -0 -0 -0 -0 -0 -0 -0 -0 -0 -0 0 0 0 0 0 0 0 0 0 0 0 0 -0 -0 -0 0 0 0
-0 0 0 -0 -0 -0 -0 -0 0 -0 -0 -0 -0 -0 -0 -0 -0 -0 -0 -0 -0 -0 -0 -0 -0 0 0 0 0 0 0 0 0 0 0 0 0 0 -0 -0 0 0 0
-0 -0 -0 -0 -0 -0 -0 -0 -0 -0 -0 -0 -0 -0 -0 -0 -0 -0 -0 -0 -0 -0 -0 -0 -0 -0 0 0 0 0 0 0 0 0 0 0 0 0 0 0 0 0 0
-0 -0 -0 -0 -0 -0 -0 -0 -0 -0 -0 -0 -0 -0 -0 -0 -0 -0 -0 -0 -0 -0 -0 -0 -0 -0 -0 0 0 0 -0 -0 0 0 0 0 0 0 0 0 0 0 0
-0 -0 -0 -0 -0 -0 -0 -0 -0 -0 -0 -0 -0 -0 -0 -0 -0 -0 -0 -0 -0 -0 -0 -0 -0 0 0 0 0 0 0 0 0 0 0 0 0 0 0 0 0 0 0
-0 -0 -0 -0 -0 -0 -0 -0 -0 -0 -0 -0 -0 -0 -0 -0 -0 -0 -0 -0 -0 -0 -0 -0 -0 0 0 0 0 0 0 0 0 0 0 0 0 0 0 0 0 0 0
-0 -0 -0 -0 -0 -0 -0 -0 -0 -0 -0 -0 -0 -0 -0 -0 -0 0 -0 -0 -0 -0 -0 -0 0 0 0 0 0 0 0 0 0 0 0 0 0 0 0 0 0 0 0
-0 -0 -0 0 0 0 0 -0 -0 -0 -0 -0 -0 0 0 0 0 0 0 0 -0 -0 -0 -0 0 0 0 0 0 0 0 0 0 0 0 0 0 0 0 0 0 0 0
0 -0 -0 -0 0 0 0 0 0 0 0 0 -0 0 0 0 0 0 0 0 0 0 0 0 0 0 0 0 0 0 0 0 0 0 0 0 0 0 0 0 0 0 0
0 0 0 0 0 0 0 0 0 0 0 0 0 0 0 0 0 0 0 0 0 0 0 0 0 0 0 0 0 0 0 0 0 0 0 0 0 0 0 0 0 0 0
0 0 0 0 0 0 0 0 0 0 0 0 0 0 0 0 0 0 0 0 0 0 0 0 0 0 0 0 0 0 0 0 0 0 0 0 0 0 0 0 0 0 0
0 0 0 0 0 0 0 0 0 0 0 0 0 0 0 0 0 0 0 0 0 0 0 0 0 0 0 0 0 0 0 0 0 0 0 0 0 0 0 0 0 0 0
0 0 0 0 0 0 0 0 0 0 0 0 0 0 0 0 0 0 0 0 0 0 0 0 0 0 0 0 0 0 0 0 0 0 0 0 0 0 0 0 0 0 0
0 0 0 0 0 0 0 0 0 0 0 0 0 0 0 0 0 0 0 0 0 0 0 0 0 0 0 0 0 0 0 0 0 0 0 0 0 0 0 0 0 0 0
0 0 0 0 0 0 0 0 0 0 0 0 0 0 0 0 0 0 0 0 0 0 0 0 0 0 0 0 0 0 0 0 0 0 0 0 0 0 0 0 0 0 0
0 0 0 0 0 0 0 0 0 0 0 0 0 0 0 0 0 0 0 0 0 0 0 0 0 0 0 0 0 0 0 0 0 0 0 0 0 0 0 0 0 0 0
0 0 0 0 0 0 0 0 0 0 0 0 0 0 0 0 0 0 0 0 0 0 0 0 0 0 0 0 0 0 0 0 0 0 0 0 0 0 0 0 0 0 0
0 0 0 0 0 0 0 0 0 0 0 0 0 0 0 0 0 0 0 0 0 0 0 0 0 0 0 0 0 0 0 0 0 0 0 0 0 0 0 0 0 0 0
0 0 0 0 0 0 0 0 0 0 0 0 0 0 0 0 0 0 0 0 0 0 0 0 0 0 0 0 0 0 0 0 0 0 0 0 0 0 0 0 0 0 0
0 0 0 0 0 0 0 0 0 0 0 0 0 0 0 0 0 0 0 0 0 0 0 0 0 0 0 0 0 0 0 0 0 0 0 0 0 0 0 0 0 0 0
0 0 0 0 0 0 0 0 0 0 0 0 0 0 0 0 0 0 0 0 0 0 0 0 0 0 0 0 0 0 0 0 0 0 0 0 0 0 0 0 0 0 0
0 0 0 0 0 0 0 0 0 0 0 0 0 0 0 0 0 0 0 0 0 0 0 0 0 0 0 0 0 0 0 0 0 0 0 0 0 0 0 0 0 0 0
0 0 0 0 0 0 0 0 0 0 0 0 0 0 0 0 0 0 0 0 0 0 0 0 0 0 0 0 0 0 0 0 0 0 0 0 0 0 0 0 0 0 0
0 0 0 0 0 0 0 0 0 0 0 0 0 0 0 0 0 0 0 0 0 0 0 0 0 0 0 0 0 0 0 0 0 0 0 0 0 0 0 0 0 0 0
Wind_Speed_500mb
23 27 25 29 30 27 23 19 17 18 22 25 28 28 26 32 45 36 28 25 26 37 37 34 32 44 45 38 43 47 48 46 45 47 49 48 52 53 50 46 45 49 46
31 31 31 33 30 26 22 17 15 16 21 25 25 31 32 32 37 29 34 33 33 35 35 35 32 40 41 41 41 44 48 41 44 45 44 46 43 43 43 44 42 45 42
32 34 34 33 28 25 21 16 13 15 18 24 26 32 35 29 29 34 26 24 31 32 33 32 34 36 38 40 43 44 39 37 36 39 40 38 37 39 39 40 40 39 39
34 36 34 32 26 21 19 16 14 13 16 23 31 32 38 33 28 35 22 23 26 29 30 32 34 34 37 40 43 38 34 23 26 27 32 35 33 34 34 35 33 32 31
35 36 34 30 24 22 19 15 15 14 16 20 26 30 33 30 21 29 26 20 24 27 29 31 32 33 36 38 39 34 31 22 23 24 27 36 35 32 30 30 30 29 27
36 37 34 28 25 22 18 16 14 15 15 18 23 26 30 30 20 20 28 20 23 26 27 28 30 32 34 37 33 28 23 17 18 22 26 32 31 28 27 27 27 27 28
34 39 36 29 27 24 20 17 15 14 15 15 17 21 23 32 28 19 18 18 16 21 25 26 27 29 30 30 26 23 20 16 18 23 28 27 23 25 25 23 22 22 24
32 40 38 34 29 27 24 19 16 15 16 16 16 16 18 25 28 25 21 20 20 21 22 24 25 26 26 26 24 22 16 19 17 23 24 24 19 21 18 17 18 21 21
30 38 42 38 34 30 27 23 18 16 16 19 18 17 15 19 21 27 21 22 23 24 24 24 24 24 23 24 24 21 16 10 13 15 17 19 17 15 11 14 16 16 13
30 33 41 40 37 35 32 27 22 19 17 20 21 19 17 16 19 23 26 22 25 26 25 24 24 23 22 22 22 20 15 13 10 10 9 13 15 10 8 11 12 11 6
35 33 41 43 41 38 36 32 28 24 22 19 18 22 21 18 18 21 23 24 25 27 26 24 23 23 22 21 22 19 14 9 8 8 7 8 10 7 1 5 6 8 4
43 37 37 41 44 43 42 38 33 30 28 25 21 22 25 23 22 21 23 23 25 27 26 24 23 23 23 22 21 19 18 17 11 7 6 7 7 4 2 1 2 5 4
43 42 42 38 39 44 44 43 42 38 35 33 30 26 30 29 28 26 27 25 26 29 29 28 27 25 25 24 24 21 18 21 18 12 10 11 11 8 5 4 2 2 6
44 42 46 46 43 42 43 41 38 41 40 39 36 32 36 36 34 32 31 29 31 33 33 31 30 27 28 27 25 24 21 22 23 16 16 16 15 14 11 9 8 7 8
42 41 47 50 50 48 46 44 43 42 43 43 41 38 37 42 37 35 35 36 36 38 38 37 35 35 34 30 27 26 24 27 28 25 20 21 20 19 18 15 13 12 11
45 45 41 50 54 51 51 49 49 45 44 45 43 42 41 44 44 42 40 42 41 42 42 41 39 39 38 35 35 34 31 30 32 31 28 27 26 25 24 22 19 18 17
46 45 50 48 49 56 56 54 54 50 50 49 48 46 46 46 46 46 47 46 44 43 45 46 43 43 43 41 41 39 36 35 35 35 33 32 31 30 30 28 26 23 23
44 52 52 54 53 53 58 59 59 58 57 56 55 53 52 51 49 51 52 51 47 48 49 50 49 49 49 47 45 43 41 40 39 38 37 37 35 35 34 32 32 29 28
51 51 56 59 59 56 55 57 61 62 63 63 61 61 59 58 56 57 57 54 52 54 56 56 56 55 55 52 49 46 45 45 44 41 42 42 40 38 36 35 35 34 33
52 52 53 57 60 58 57 57 60 63 67 69 69 70 66 64 62 63 65 62 59 62 63 63 64 61 61 55 52 52 50 49 48 46 45 44 45 45 41 38 39 38 37
56 54 55 55 57 59 63 65 67 70 69 73 75 76 76 71 70 68 72 72 68 71 69 69 69 68 68 60 54 55 56 56 58 57 51 51 51 50 49 42 39 40 40
39 44 50 54 58 60 63 65 67 69 72 71 74 78 79 79 78 76 78 80 78 78 78 77 77 76 75 68 67 59 51 63 68 67 63 60 60 56 54 51 44 43 43
51 53 55 59 61 63 64 65 64 68 70 72 80 82 84 84 85 83 83 85 86 86 88 85 84 83 84 80 77 65 30 41 40 54 65 65 54 54 56 57 53 49 46
40 27 34 52 55 57 58 69 72 73 75 72 72 78 82 84 88 87 89 90 93 94 95 95 92 93 89 93 85 91 87 54 34 23 45 52 54 56 56 56 57 56 52
21 23 22 27 32 36 44 61 66 75 78 75 74 76 77 81 83 86 89 94 99 101 102 103 103 103 103 102 102 99 98 97 74 58 54 53 54 57 56 57 54 57 57
14 14 15 11 16 24 37 46 50 61 69 77 80 83 85 83 85 86 88 92 97 104 106 110 111 112 111 111 111 109 109 105 105 91 75 72 67 65 58 53 53 58 61
Wind_Direction_500mb
159 158 144 136 132 137 131 119 112 102 98 107 110 112 111 102 115 103 107 106 105 101 101 97 93 95 100 99 87 85 88 91 90 84 79 77 80 81 79 77 78 80 81
156 157 146 139 141 139 135 125 113 102 103 118 112 106 102 102 111 114 102 99 102 101 105 103 94 95 102 97 89 87 85 89 89 88 86 85 83 88 87 82 70 75 79
158 157 151 145 147 142 141 130 116 110 107 124 117 113 111 108 106 98 101 104 100 107 107 106 100 98 103 97 91 83 81 87 101 101 97 93 88 89 93 95 91 84 77
162 159 157 151 149 149 140 130 125 117 117 126 124 119 121 118 114 113 104 99 108 105 106 104 103 106 108 105 100 97 91 91 98 103 101 91 93 86 88 90 90 90 91
161 162 159 155 150 153 142 137 132 126 124 128 129 124 124 114 112 117 120 108 117 114 109 107 107 110 113 112 113 109 102 99 94 94 91 95 90 86 86 83 83 82 84
160 164 163 161 157 155 149 145 142 132 131 138 133 135 127 118 117 116 130 129 115 117 114 114 113 115 116 118 120 112 106 101 94 97 98 92 92 87 81 78 80 81 83
162 170 169 170 167 165 163 160 154 144 141 144 142 142 140 132 137 147 153 151 131 120 126 124 122 122 122 123 121 111 114 101 109 105 97 93 88 87 75 76 77 68 75
175 176 176 176 177 177 177 173 169 165 163 159 155 153 158 153 149 151 155 159 152 142 140 136 133 132 130 129 124 119 107 89 103 102 103 98 99 87 79 79 67 72 88
189 184 182 184 185 187 185 183 183 185 184 180 174 173 172 172 169 153 164 172 166 158 154 150 147 143 141 138 136 135 128 90 86 108 116 109 101 100 94 70 73 82 95
197 191 189 192 195 195 194 194 196 201 204 188 192 189 187 190 192 182 180 179 174 168 165 164 160 158 156 153 153 151 143 127 105 102 119 114 107 120 81 73 74 81 92
214 201 198 201 202 203 204 205 205 207 215 212 201 207 203 200 205 205 194 193 186 178 175 174 172 170 169 167 166 167 161 165 149 130 139 153 153 181 103 89 74 73 89
213 214 209 210 211 209 210 212 214 216 219 228 227 221 214 209 212 211 209 202 194 191 188 188 186 185 184 182 185 190 182 199 211 193 192 209 229 219 228 153 104 107 172
214 214 222 219 220 219 214 211 219 221 224 228 229 226 224 214 217 215 214 208 204 205 203 200 200 199 197 196 197 208 203 206 229 223 225 225 236 242 254 262 236 174 200
223 224 222 224 226 228 222 222 223 225 230 233 234 230 229 228 221 218 217 220 215 217 215 211 210 212 211 210 208 221 224 219 239 234 234 239 243 249 251 256 249 228 218
229 232 228 226 229 232 232 233 232 232 235 237 237 235 229 235 234 227 223 223 221 222 222 221 217 219 225 231 229 233 236 231 241 252 248 248 249 252 253 252 253 242 225
238 235 235 232 234 236 237 237 237 238 240 238 237 238 238 241 243 234 231 229 226 226 229 227 227 227 231 233 233 237 239 238 243 250 257 256 256 255 255 253 249 244 239
243 244 239 239 238 239 242 241 242 243 243 242 244 243 243 246 244 237 238 234 234 230 231 232 230 232 234 236 238 240 241 243 243 247 253 256 257 257 257 256 253 248 243
247 244 243 242 241 241 241 242 243 242 243 244 245 247 246 247 246 245 241 243 239 236 235 236 235 236 239 240 242 244 245 245 248 249 252 256 258 259 259 258 257 251 244
248 244 244 243 245 244 243 244 245 245 245 247 247 247 249 249 247 247 246 245 243 241 240 239 238 238 241 242 245 247 247 246 249 250 250 254 257 258 258 258 256 254 248
246 250 249 250 251 250 249 248 247 246 246 248 249 249 249 250 249 249 251 248 243 242 241 241 242 242 244 246 248 251 251 252 250 248 249 252 254 256 255 256 252 252 247
242 246 248 250 255 252 247 246 246 246 246 246 248 251 251 251 251 249 251 250 245 243 244 244 244 243 245 242 243 247 250 253 254 254 251 251 250 250 252 252 250 246 246
255 248 247 253 255 254 255 259 256 258 258 257 256 254 254 253 253 252 251 252 249 247 245 244 242 243 244 241 236 240 248 249 248 250 252 251 256 248 245 249 249 244 244
261 255 252 256 256 255 259 258 257 256 257 258 257 256 256 256 256 255 254 253 253 250 250 248 246 243 243 242 237 231 223 237 251 255 250 251 253 250 248 244 245 241 240
264 242 240 243 245 252 258 257 257 259 261 268 271 269 266 263 260 259 258 257 255 254 251 251 249 246 242 244 238 237 237 249 239 246 243 244 244 246 246 244 240 238 235
234 250 254 252 249 247 253 257 263 263 264 270 269 271 271 270 267 264 262 260 258 256 255 253 251 247 245 244 244 242 240 238 243 246 252 242 241 242 243 244 240 235 233
257 270 282 292 298 269 257 253 260 266 268 268 269 269 271 271 271 267 266 263 263 261 259 257 256 253 249 247 247 246 247 240 239 235 240 247 250 253 252 247 242 235 232
Wind_Speed_850mb
23 27 25 29 30 27 23 19 17 18 22 25 28 28 26 32 45 36 28 25 26 37 37 34 32 44 45 38 43 47 48 46 45 47 49 48 52 53 50 46 45 49 46
31 31 31 33 30 26 22 17 15 16 21 25 25 31 32 32 37 29 34 33 33 35 35 35 32 40 41 41 41 44 48 41 44 45 44 46 43 43 43 44 42 45 42
32 34 34 33 28 25 21 16 13 15 18 24 26 32 35 29 29 34 26 24 31 32 33 32 34 36 38 40 43 44 39 37 36 39 40 38 37 39 39 40 40 39 39
34 36 34 32 26 21 19 16 14 13 16 23 31 32 38 33 28 35 22 23 26 29 30 32 34 34 37 40 43 38 34 23 26 27 32 35 33 34 34 35 33 32 31
35 36 34 30 24 22 19 15 15 14 16 20 26 30 33 30 21 29 26 20 24 27 29 31 32 33 36 38 39 34 31 22 23 24 27 36 35 32 30 30 30 29 27
36 37 34 28 25 22 18 16 14 15 15 18 23 26 30 30 20 20 28 20 23 26 27 28 30 32 34 37 33 28 23 17 18 22 26 32 31 28 27 27 27 27 28
34 39 36 29 27 24 20 17 15 14 15 15 17 21 23 32 28 19 18 18 16 21 25 26 27 29 30 30 26 23 20 16 18 23 28 27 23 25 25 23 22 22 24
32 40 38 34 29 27 24 19 16 15 16 16 16 16 18 25 28 25 21 20 20 21 22 24 25 26 26 26 24 22 16 19 17 23 24 24 19 21 18 17 18 21 21
30 38 42 38 34 30 27 23 18 16 16 19 18 17 15 19 21 27 21 22 23 24 24 24 24 24 23 24 24 21 16 10 13 15 17 19 17 15 11 14 16 16 13
30 33 41 40 37 35 32 27 22 19 17 20 21 19 17 16 19 23 26 22 25 26 25 24 24 23 22 22 22 20 15 13 10 10 9 13 15 10 8 11 12 11 6
35 33 41 43 41 38 36 32 28 24 22 19 18 22 21 18 18 21 23 24 25 27 26 24 23 23 22 21 22 19 14 9 8 8 7 8 10 7 1 5 6 8 4
43 37 37 41 44 43 42 38 33 30 28 25 21 22 25 23 22 21 23 23 25 27 26 24 23 23 23 22 21 19 18 17 11 7 6 7 7 4 2 1 2 5 4
43 42 42 38 39 44 44 43 42 38 35 33 30 26 30 29 28 26 27 25 26 29 29 28 27 25 25 24 24 21 18 21 18 12 10 11 11 8 5 4 2 2 6
44 42 46 46 43 42 43 41 38 41 40 39 36 32 36 36 34 32 31 29 31 33 33 31 30 27 28 27 25 24 21 22 23 16 16 16 15 14 11 9 8 7 8
42 41 47 50 50 48 46 44 43 42 43 43 41 38 37 42 37 35 35 36 36 38 38 37 35 35 34 30 27 26 24 27 28 25 20 21 20 19 18 15 13 12 11
45 45 41 50 54 51 51 49 49 45 44 45 43 42 41 44 44 42 40 42 41 42 42 41 39 39 38 35 35 34 31 30 32 31 28 27 26 25 24 22 19 18 17
46 45 50 48 49 56 56 54 54 50 50 49 48 46 46 46 46 46 47 46 44 43 45 46 43 43 43 41 41 39 36 35 35 35 33 32 31 30 30 28 26 23 23
44 52 52 54 53 53 58 59 59 58 57 56 55 53 52 51 49 51 52 51 47 48 49 50 49 49 49 47 45 43 41 40 39 38 37 37 35 35 34 32 32 29 28
51 51 56 59 59 56 55 57 61 62 63 63 61 61 59 58 56 57 57 54 52 54 56 56 56 55 55 52 49 46 45 45 44 41 42 42 40 38 36 35 35 34 33
52 52 53 57 60 58 57 57 60 63 67 69 69 70 66 64 62 63 65 62 59 62 63 63 64 61 61 55 52 52 50 49 48 46 45 44 45 45 41 38 39 38 37
56 54 55 55 57 59 63 65 67 70 69 73 75 76 76 71 70 68 72 72 68 71 69 69 69 68 68 60 54 55 56 56 58 57 51 51 51 50 49 42 39 40 40
39 44 50 54 58 60 63 65 67 69 72 71 74 78 79 79 78 76 78 80 78 78 78 77 77 76 75 68 67 59 51 63 68 67 63 60 60 56 54 51 44 43 43
51 53 55 59 61 63 64 65 64 68 70 72 80 82 84 84 85 83 83 85 86 86 88 85 84 83 84 80 77 65 30 41 40 54 65 65 54 54 56 57 53 49 46
40 27 34 52 55 57 58 69 72 73 75 72 72 78 82 84 88 87 89 90 93 94 95 95 92 93 89 93 85 91 87 54 34 23 45 52 54 56 56 56 57 56 52
21 23 22 27 32 36 44 61 66 75 78 75 74 76 77 81 83 86 89 94 99 101 102 103 103 103 103 102 102 99 98 97 74 58 54 53 54 57 56 57 54 57 57
14 14 15 11 16 24 37 46 50 61 69 77 80 83 85 83 85 86 88 92 97 104 106 110 111 112 111 111 111 109 109 105 105 91 75 72 67 65 58 53 53 58 61
Wind_Direction_850mb
159 158 144 136 132 137 131 119 112 102 98 107 110 112 111 102 115 103 107 106 105 101 101 97 93 95 100 99 87 85 88 91 90 84 79 77 80 81 79 77 78 80 81
156 157 146 139 141 139 135 125 113 102 103 118 112 106 102 102 111 114 102 99 102 101 105 103 94 95 102 97 89 87 85 89 89 88 86 85 83 88 87 82 70 75 79
158 157 151 145 147 142 141 130 116 110 107 124 117 113 111 108 106 98 101 104 100 107 107 106 100 98 103 97 91 83 81 87 101 101 97 93 88 89 93 95 91 84 77
162 159 157 151 149 149 140 130 125 117 117 126 124 119 121 118 114 113 104 99 108 105 106 104 103 106 108 105 100 97 91 91 98 103 101 91 93 86 88 90 90 90 91
161 162 159 155 150 153 142 137 132 126 124 128 129 124 124 114 112 117 120 108 117 114 109 107 107 110 113 112 113 109 102 99 94 94 91 95 90 86 86 83 83 82 84
160 164 163 161 157 155 149 145 142 132 131 138 133 135 127 118 117 116 130 129 115 117 114 114 113 115 116 118 120 112 106 101 94 97 98 92 92 87 81 78 80 81 83
162 170 169 170 167 165 163 160 154 144 141 144 142 142 140 132 137 147 153 151 131 120 126 124 122 122 122 123 121 111 114 101 109 105 97 93 88 87 75 76 77 68 75
175 176 176 176 177 177 177 173 169 165 163 159 155 153 158 153 149 151 155 159 152 142 140 136 133 132 130 129 124 119 107 89 103 102 103 98 99 87 79 79 67 72 88
189 184 182 184 185 187 185 183 183 185 184 180 174 173 172 172 169 153 164 172 166 158 154 150 147 143 141 138 136 135 128 90 86 108 116 109 101 100 94 70 73 82 95
197 191 189 192 195 195 194 194 196 201 204 188 192 189 187 190 192 182 180 179 174 168 165 164 160 158 156 153 153 151 143 127 105 102 119 114 107 120 81 73 74 81 92
214 201 198 201 202 203 204 205 205 207 215 212 201 207 203 200 205 205 194 193 186 178 175 174 172 170 169 167 166 167 161 165 149 130 139 153 153 181 103 89 74 73 89
213 214 209 210 211 209 210 212 214 216 219 228 227 221 214 209 212 211 209 202 194 191 188 188 186 185 184 182 185 190 182 199 211 193 192 209 229 219 228 153 104 107 172
214 214 222 219 220 219 214 211 219 221 224 228 229 226 224 214 217 215 214 208 204 205 203 200 200 199 197 196 197 208 203 206 229 223 225 225 236 242 254 262 236 174 200
223 224 222 224 226 228 222 222 223 225 230 233 234 230 229 228 221 218 217 220 215 217 215 211 210 212 211 210 208 221 224 219 239 234 234 239 243 249 251 256 249 228 218
229 232 228 226 229 232 232 233 232 232 235 237 237 235 229 235 234 227 223 223 221 222 222 221 217 219 225 231 229 233 236 231 241 252 248 248 249 252 253 252 253 242 225
238 235 235 232 234 236 237 237 237 238 240 238 237 238 238 241 243 234 231 229 226 226 229 227 227 227 231 233 233 237 239 238 243 250 257 256 256 255 255 253 249 244 239
243 244 239 239 238 239 242 241 242 243 243 242 244 243 243 246 244 237 238 234 234 230 231 232 230 232 234 236 238 240 241 243 243 247 253 256 257 257 257 256 253 248 243
247 244 243 242 241 241 241 242 243 242 243 244 245 247 246 247 246 245 241 243 239 236 235 236 235 236 239 240 242 244 245 245 248 249 252 256 258 259 259 258 257 251 244
248 244 244 243 245 244 243 244 245 245 245 247 247 247 249 249 247 247 246 245 243 241 240 239 238 238 241 242 245 247 247 246 249 250 250 254 257 258 258 258 256 254 248
246 250 249 250 251 250 249 248 247 246 246 248 249 249 249 250 249 249 251 248 243 242 241 241 242 242 244 246 248 251 251 252 250 248 249 252 254 256 255 256 252 252 247
242 246 248 250 255 252 247 246 246 246 246 246 248 251 251 251 251 249 251 250 245 243 244 244 244 243 245 242 243 247 250 253 254 254 251 251 250 250 252 252 250 246 246
255 248 247 253 255 254 255 259 256 258 258 257 256 254 254 253 253 252 251 252 249 247 245 244 242 243 244 241 236 240 248 249 248 250 252 251 256 248 245 249 249 244 244
261 255 252 256 256 255 259 258 257 256 257 258 257 256 256 256 256 255 254 253 253 250 250 248 246 243 243 242 237 231 223 237 251 255 250 251 253 250 248 244 245 241 240
264 242 240 243 245 252 258 257 257 259 261 268 271 269 266 263 260 259 258 257 255 254 251 251 249 246 242 244 238 237 237 249 239 246 243 244 244 246 246 244 240 238 235
234 250 254 252 249 247 253 257 263 263 264 270 269 271 271 270 267 264 262 260 258 256 255 253 251 247 245 244 244 242 240 238 243 246 252 242 241 242 243 244 240 235 233
257 270 282 292 298 269 257 253 260 266 268 268 269 269 271 271 271 267 266 263 263 261 259 257 256 253 249 247 247 246 247 240 239 235 240 247 250 253 252 247 242 235 232